Flag for U.S.A. Weather past 2 weeks in Newport News, Virginia, U.S.A.

Now
80 °F

Overcast.


Feels Like: 84 °F
Forecast: 75 / 86 °F
Wind: 10 mph from Southwest

Location: Newport News / Williamsburg International Airport

Current Time: Jul 2, 2015 at 1:12:31 PM

Latest Report: Jul 2, 2015 at 12:54 PM


Visibility: 5 mi

Pressure: 29.87 "Hg

Humidity: 76%

Dew point: 72 °F

Location of Newport NewsLocation

Historic Weather in Newport News — Graph

°F

Newport News temperature yesterday

Maximum temperature yesterday: 85 °F (at 2:54 PM)
Minimum temperature yesterday: 71 °F (at 5:54 AM)
Average temperature yesterday: 78 °F

Past Weeks' High & Low Weather Summary

 TemperatureHumidityPressure
High98 °F (Jun 20, 4:54 PM)97% (Jun 27, 6:54 AM)30.11 "Hg (Jun 27, 6:54 AM)
Low59 °F (Jun 29, 5:54 AM)37% (Jun 19, 3:54 PM)29.67 "Hg (Jun 28, 2:54 AM)
Average80 °F71%29.95 "Hg
* Reported Jun 17 11:54 AM — Jul 2 11:54 AM, Newport News, Weather by CustomWeather, © 2015

Note: Actual official high and low records may vary slightly from our data, if they occured in-between our weather recording intervals... More about our weather records

Advertising

Newport News weather history for previous 24 hours

 ConditionsComfort  
Time TempWeatherWind HumidityBarometerVisibility
11:54 AM
Thu, Jul 2
80 °FHaze.10 mph79%29.86 "Hg5 mi
10:54 AM80 °FPartly sunny.10 mph79%29.88 "Hg5 mi
9:54 AM79 °FScattered clouds.9 mph82%29.88 "Hg5 mi
8:54 AM77 °FSunny.8 mph85%29.89 "Hg5 mi
7:54 AM76 °FFog.8 mph88%29.89 "Hg5 mi
6:54 AM76 °FFog.7 mph88%29.88 "Hg6 mi
5:54 AM76 °FOvercast.3 mph88%29.85 "Hg7 mi
4:54 AM75 °FClear.7 mph90%29.86 "Hg7 mi
3:54 AM76 °FClear.6 mph85%29.88 "Hg8 mi
2:54 AM78 °FClear.9 mph79%29.89 "Hg8 mi
1:54 AM78 °FClear.9 mph79%29.90 "Hg8 mi
12:54 AM77 °FClear.8 mph79%29.91 "Hg8 mi
11:54 PM
Wed, Jul 1
77 °FClear.8 mph79%29.91 "Hg8 mi
10:54 PM77 °FClear.6 mph79%29.92 "Hg8 mi
9:54 PM78 °FClear.8 mph76%29.91 "Hg9 mi
8:54 PM79 °FSunny.6 mph74%29.90 "Hg9 mi
7:54 PM81 °FSunny.8 mph65%29.89 "Hg8 mi
6:54 PM83 °FSunny.12 mph63%29.87 "Hg9 mi
5:54 PM84 °FSunny.12 mph59%29.87 "Hg9 mi
4:54 PM85 °FSunny.12 mph57%29.88 "Hg9 mi
3:54 PM85 °FSunny.14 mph57%29.88 "Hg10 mi
2:54 PM85 °FSunny.14 mph55%29.89 "Hg10 mi
1:54 PM83 °FSunny.14 mph63%29.90 "Hg10 mi
Weather by CustomWeather, © 2015

See weather overviewHow to use our weather pages